EW4052 Weather Reports


time (UTC)temp
F
wind
direction
speed
knots
gust
knots
rain 1hr
in
rain 24hr
in
rain mn
in
humidity
%
barometer
mb
20220627210025 82 269 6.1 9.6 0.00 0.00 0.00 41 1022.0
20220627204521 81 271 4.3 6.1 0.00 0.00 0.00 38 1022.1
20220627203018 80 248 4.3 10.4 0.00 0.00 0.00 41 1022.4
20220627201521 80 236 4.3 8.7 0.00 0.00 0.00 41 1022.5
20220627200015 80 248 7.0 11.3 0.00 0.00 0.00 42 1022.5
20220627194516 80 289 3.5 5.2 0.00 0.00 0.00 45 1022.6
20220627193015 80 271 2.6 9.6 0.00 0.00 0.00 42 1022.8
20220627191516 79 276 4.3 7.8 0.00 0.00 0.00 42 1022.9
20220627190009 78 261 7.0 10.4 0.00 0.00 0.00 44 1023.1
20220627184507 79 263 0.0 7.0 0.00 0.00 0.00 45 1023.3
20220627183005 78 304 4.3 8.7 0.00 0.00 0.00 45 1023.4
20220627181504 78 308 6.1 11.3 0.00 0.00 0.00 44 1023.5
20220627180004 78 248 4.3 11.3 0.00 0.00 0.00 49 1023.7
20220627174600 77 263 5.2 10.4 0.00 0.00 0.00 46 1023.8
20220627174501 77 244 7.0 10.4 0.00 0.00 0.00 46 1023.9
20220627173059 77 300 4.3 7.8 0.00 0.00 0.00 48 1024.1
20220627171557 76 269 2.6 9.6 0.00 0.00 0.00 47 1024.1
20220627170056 76 261 2.6 9.6 0.00 0.00 0.00 44 1024.1
20220627164554 75 273 6.1 9.6 0.00 0.00 0.00 45 1024.2
20220627163054 75 288 3.5 8.7 0.00 0.00 0.00 49 1024.3
20220627161552 75 250 3.5 8.7 0.00 0.00 0.00 47 1024.3
20220627160100 74 250 4.3 9.6 0.00 0.00 0.00 47 1024.4
20220627154603 73 242 5.2 9.6 0.00 0.00 0.00 51 1024.5
20220627153043 72 246 2.6 8.7 0.00 0.00 0.00 52 1024.4
20220627151548 71 262 3.5 8.7 0.00 0.00 0.00 54 1024.6
20220627150039 70 266 3.5 8.7 0.00 0.00 0.00 54 1024.7
20220627144532 68 263 5.2 7.8 0.00 0.00 0.00 59 1024.8
20220627143026 67 263 2.6 5.2 0.00 0.00 0.00 62 1024.7
20220627141523 66 236 0.0 5.2 0.00 0.00 0.00 64 1024.6
20220627140019 64 272 0.9 6.1 0.00 0.00 0.00 67 1024.6
20220627134520 63 241 0.9 4.3 0.00 0.00 0.00 68 1024.6
20220627133012 62 227 0.0 7.0 0.00 0.00 0.00 72 1024.4
20220627131511 61 247 0.0 3.5 0.00 0.00 0.00 75 1024.3
20220627130011 59 240 0.0 4.3 0.00 0.00 0.00 73 1024.2
20220627124611 58 225 0.0 4.3 0.00 0.00 0.00 79 1024.2
20220627123009 57 224 0.0 0.0 0.00 0.00 0.00 81 1024.2
20220627121507 55 193 0.0 0.0 0.00 0.00 0.00 81 1024.2
20220627120007 55 196 0.0 4.3 0.00 0.00 0.00 81 1024.0
20220627114507 55 202 0.0 0.9 0.00 0.00 0.00 77 1024.2
20220627113006 54 201 0.0 0.0 0.00 0.00 0.00 79 1024.1
20220627111505 53 201 0.0 0.0 0.00 0.00 0.00 82 1024.1
20220627110008 53 201 0.0 1.7 0.00 0.00 0.00 82 1024.0
20220627104601 53 217 0.0 0.0 0.00 0.00 0.00 81 1023.9
20220627103058 54 217 0.0 0.0 0.00 0.00 0.00 79 1023.8
20220627101604 54 217 0.0 0.0 0.00 0.00 0.00 80 1023.7
20220627100056 54 217 0.0 0.0 0.00 0.00 0.00 78 1023.6
20220627094554 54 217 0.0 0.0 0.00 0.00 0.00 79 1023.5
20220627093053 55 217 0.0 0.0 0.00 0.00 0.00 78 1023.5
20220627091552 54 217 0.0 0.0 0.00 0.00 0.00 77 1023.5
20220627090050 55 217 0.0 0.0 0.00 0.00 0.00 80 1023.4
20220627084547 55 217 0.0 0.0 0.00 0.00 0.00 79 1023.3
20220627083042 58 219 0.0 0.0 0.00 0.00 0.00 74 1023.2
20220627081541 60 238 1.7 6.1 0.00 0.00 0.00 72 1023.0
20220627080044 60 271 2.6 5.2 0.00 0.00 0.00 71 1023.1
20220627074539 61 280 2.6 5.2 0.00 0.00 0.00 70 1023.1
20220627073038 61 280 1.7 6.1 0.00 0.00 0.00 70 1023.1
20220627071542 61 290 3.5 7.0 0.00 0.00 0.00 70 1023.3
20220627070036 62 275 4.3 8.7 0.00 0.00 0.00 66 1023.2
20220627064536 62 252 5.2 9.6 0.00 0.00 0.00 69 1023.0
20220627063034 60 248 3.5 7.0 0.00 0.00 0.00 69 1023.0
20220627061534 59 231 0.0 5.2 0.00 0.00 0.00 68 1022.9
20220627060035 60 236 0.0 0.0 0.00 0.00 0.00 65 1022.8
20220627054525 60 234 0.0 0.0 0.00 0.00 0.00 62 1022.8
20220627053021 62 235 0.0 0.0 0.00 0.00 0.00 59 1022.8
20220627051527 62 238 0.9 5.2 0.00 0.00 0.00 60 1022.7
20220627050018 62 281 0.0 5.2 0.00 0.00 0.00 63 1022.7
20220627044520 62 223 0.0 0.0 0.00 0.00 0.00 57 1022.7
20220627043015 62 221 0.0 0.0 0.00 0.00 0.00 56 1022.7
20220627041514 63 219 0.0 0.0 0.00 0.00 0.00 54 1022.8
20220627040013 64 219 0.0 4.3 0.00 0.00 0.00 52 1022.7
20220627034512 66 255 0.0 5.2 0.00 0.00 0.00 52 1022.5
20220627033016 66 275 0.0 6.1 0.00 0.00 0.00 52 1022.5
20220627031509 66 290 2.6 7.0 0.00 0.00 0.00 54 1022.4
20220627030007 67 284 3.5 7.8 0.00 0.00 0.00 53 1022.3
20220627024506 67 294 4.3 7.8 0.00 0.00 0.00 53 1022.0
20220627023005 68 288 3.5 8.7 0.00 0.00 0.00 55 1021.7
20220627021509 68 272 2.6 9.6 0.00 0.00 0.00 55 1021.4
20220627020004 69 284 3.5 8.7 0.00 0.00 0.00 51 1021.2
20220627014506 70 300 5.2 8.7 0.00 0.00 0.00 52 1021.1
20220627013001 70 284 5.2 9.6 0.00 0.00 0.00 50 1020.8
20220627011601 71 284 6.1 12.2 0.00 0.00 0.00 47 1020.9
20220627010106 72 250 7.0 12.2 0.00 0.00 0.00 50 1020.6
20220627004559 72 271 6.1 10.4 0.00 0.00 0.00 46 1020.5
20220627003058 72 286 7.0 14.8 0.00 0.00 0.00 45 1020.6
20220627001623 73 263 7.8 15.6 0.00 0.00 0.00 48 1020.6
20220627000056 73 283 7.0 15.6 0.00 0.00 0.00 47 1020.5
20220626234557 73 287 7.8 16.5 0.00 0.00 0.00 49 1020.6
20220626233058 73 294 7.8 16.5 0.00 0.00 0.00 49 1020.6
20220626231557 73 261 8.7 18.2 0.00 0.00 0.00 48 1020.5
20220626230054 73 293 7.8 13.9 0.00 0.00 0.00 50 1020.5
20220626224553 73 265 8.7 13.9 0.00 0.00 0.00 47 1020.6
20220626223053 73 309 7.0 13.0 0.00 0.00 0.00 48 1020.7
20220626221604 73 282 8.7 15.6 0.00 0.00 0.00 47 1020.7
20220626220051 73 281 9.6 16.5 0.00 0.00 0.00 48 1020.9
20220626214549 73 264 9.6 15.6 0.00 0.00 0.00 45 1020.8
20220626213052 73 274 10.4 18.2 0.00 0.00 0.00 46 1021.0
20220626211547 73 289 7.0 16.5 0.00 0.00 0.00 51 1021.0